Location: Goheenville
(40.9070°N, 79.3720°W)
Time: 03:34:49
(UTC-05:00)

Meteor 2-10 Rocket - Visible Passes

Search period start: 23 November 2014 00:00
Search period end: 03 December 2014 00:00
Orbit: 735 x 885 km, 81.2° (Epoch: 22 November)

Date Brightness Start Highest point End Pass type
(mag) Time Alt. Az. Time Alt. Az. Time Alt. Az.
23 Nov 3.8 05:16:30 10° N 05:22:13 75° E 05:27:40 10° SSE visible
23 Nov 3.7 18:17:57 10° S 18:23:38 82° E 18:29:28 10° NNE visible
23 Nov 6.5 20:03:27 10° W 20:06:27 14° WNW 20:09:30 10° NNW visible
24 Nov 4.3 04:52:28 10° N 04:58:02 54° ENE 05:03:21 10° SSE visible
24 Nov 5.0 06:35:43 10° NW 06:39:33 19° W 06:43:16 10° SW visible
24 Nov 3.8 17:53:58 10° S 17:59:32 59° E 18:05:15 10° NNE visible
24 Nov 6.1 19:38:00 10° WSW 19:42:04 20° WNW 19:46:11 10° NNW visible
25 Nov 4.9 04:28:31 10° N 04:33:48 39° ENE 04:38:51 10° SE visible
25 Nov 4.6 06:11:01 10° NNW 06:15:36 26° W 06:20:02 10° SW visible
25 Nov 4.2 17:30:10 10° SSE 17:35:30 43° E 17:40:57 10° NNE visible
25 Nov 5.7 19:12:58 10° SW 19:17:43 26° WNW 19:22:34 10° NNW visible
26 Nov 5.4 04:06:13 17° NNE 04:09:30 28° ENE 04:14:08 10° SE visible
26 Nov 4.1 05:47:29 15° NNW 05:51:37 36° W 05:56:31 10° SSW visible
26 Nov 5.3 18:48:12 10° SW 18:53:26 36° WNW 18:58:46 10° N visible
27 Nov 5.9 03:44:05 20° NE 03:45:10 21° ENE 03:49:10 10° ESE visible
27 Nov 3.7 05:25:22 32° NW 05:27:35 51° W 05:32:46 10° SSW visible
27 Nov 4.7 18:23:39 10° SSW 18:29:11 49° WNW 18:34:50 10° N visible
28 Nov 6.3 03:21:53 14° ENE 03:21:53 14° ENE 03:23:49 10° E visible
28 Nov 3.5 05:03:09 69° WNW 05:03:31 72° W 05:08:50 10° S visible
28 Nov 4.2 17:59:17 10° SSW 18:05:00 67° WNW 18:10:49 10° N visible
29 Nov 4.1 04:40:51 50° SSE 04:40:51 50° SSE 04:44:43 10° SSE visible
29 Nov 5.5 06:22:07 10° W 06:22:07 10° W 06:22:16 10° W visible
29 Nov 3.8 17:35:05 10° S 17:40:51 89° E 17:46:43 10° N visible
29 Nov 6.5 19:21:07 10° W 19:23:45 13° WNW 19:26:24 10° NW visible
30 Nov 5.4 04:18:27 23° SSE 04:18:27 23° SSE 04:20:27 10° SSE visible
30 Nov 5.6 05:59:42 11° WSW 05:59:42 11° WSW 05:59:55 10° WSW visible
30 Nov 3.8 17:11:04 10° S 17:16:45 65° E 17:22:31 10° NNE visible
30 Nov 6.3 18:55:29 10° WSW 18:59:20 18° WNW 19:03:14 10° NNW visible
01 Dec 6.3 03:55:57 10° SE 03:55:57 10° SE 03:55:59 10° SE visible
01 Dec 5.9 18:30:22 10° WSW 18:34:59 24° WNW 18:39:40 10° NNW visible
02 Dec 5.5 18:05:32 10° SW 18:10:41 33° WNW 18:15:54 10° N visible
